M I D A S
Marine Information and Data Acquisition System
Tripno 518 of the Zeeleeuw from 2003-06-18 07:52:01 to 2003-06-18 13:06:49
Back to CruiseResearch ActivitiesStationsMapUnderway DataData graphs

EquipmentUnitsComments
TimeDGPSUTC
LatitudeDGPSDM.mWGS84
LongitudeDGPSDM.mWGS84
SpeedMeteo Stationm/sRelative wind speed
DirectionMeteo StationdegRelative wind direction
TemperatureMeteo Stationdeg CelciusAir temperature
PressureMeteo StationPaAtmospheric pressure
HumidityMeteo Station%Relative humidity
Missing or incorrect values are displayed as -999
Metereological data collected by the RV Zeeleeuw from 2003-06-18 07:52:01 to 2003-06-18 13:06:49
Time Latitude Longitude Speed Direction Temperature Pressure Humidity
2003-06-18 07:53 51°14.28 2°55.22 11.1 352 17.3 101810 77
2003-06-18 07:54 51°14.39 2°54.98 11.7 356 17.2 101800 78
2003-06-18 07:55 51°14.49 2°54.7 14.7 351 17 101790 77
2003-06-18 07:56 51°14.6 2°54.41 11.7 349 17 101790 77
2003-06-18 07:57 51°14.7 2°54.12 13 353 16.9 101790 77
2003-06-18 07:58 51°14.82 2°53.81 13.1 356 16.9 101780 77
2003-06-18 07:59 51°14.93 2°53.5 14.5 2 16.9 101780 77
2003-06-18 08:00 51°15.05 2°53.18 13.8 358 16.9 101780 77
2003-06-18 08:01 51°15.17 2°52.85 14.6 358 16.8 101760 77
2003-06-18 08:02 51°15.29 2°52.52 13.7 353 16.8 101760 78
2003-06-18 08:03 51°15.4 2°52.19 13.8 352 16.8 101770 78
2003-06-18 08:04 51°15.52 2°51.86 15   16.8 101770 79
2003-06-18 08:05 51°15.58 2°51.5 14.9 4 16.7 101800 79
2003-06-18 08:06 51°15.59 2°51.11 14.1 14 16.6 101800 79
2003-06-18 08:07 51°15.58 2°50.72 14.9 12 16.6 101800 78
2003-06-18 08:08 51°15.57 2°50.33 14.3 15 16.7 101790 79
2003-06-18 08:09 51°15.52 2°49.94 13.5 18 16.6 101790 78
2003-06-18 08:10 51°15.46 2°49.56 15.3 23 16.6 101820 79
2003-06-18 08:11 51°15.4 2°49.18 14.3 27 16.6 101800 79
2003-06-18 08:12 51°15.33 2°48.81 14.2 21 16.6 101810 79
2003-06-18 08:13 51°15.26 2°48.43 14.6 24 16.6 101810 78
2003-06-18 08:14 51°15.2 2°48.05 14.1 23 16.6 101810 79
2003-06-18 08:15 51°15.13 2°47.69 14.9 23 16.6 101810 79
2003-06-18 08:15 51°15.07 2°47.35 13.8 27 16.5 101820 78
2003-06-18 08:16 51°15.01 2°46.98 13.6 25 16.5 101820 78
2003-06-18 08:17 51°14.93 2°46.61 14 30 16.6 101820 78
2003-06-18 08:18 51°14.86 2°46.25 14.4 26 16.5 101820 77
2003-06-18 08:19 51°14.79 2°45.88 14.2 23 16.5 101830 78
2003-06-18 08:20 51°14.71 2°45.51 14.8 18 16.6 101830 79
2003-06-18 08:21 51°14.64 2°45.14 14.8 18 16.5 101840 79
2003-06-18 08:22 51°14.56 2°44.77 15 21 16.5 101840 80
2003-06-18 08:23 51°14.49 2°44.4 14.6 15 16.4 101840 80
2003-06-18 08:24 51°14.42 2°44.02 14.8 12 16.4 101840 80
2003-06-18 08:25 51°14.37 2°43.64 15.2 16 16.4 101830 80
2003-06-18 08:26 51°14.32 2°43.27 14.1 15 16.2 101840 80
2003-06-18 08:27 51°14.28 2°42.97 12.2 18 16.2 101840 80
2003-06-18 08:28 51°14.25 2°42.74 10.1 21 16.2 101860 80
2003-06-18 08:29 51°14.22 2°42.55 9.2 18 16.3 101850 80
2003-06-18 08:30 51°14.19 2°42.38 10.1 22 16.3 101850 80
2003-06-18 08:31 51°14.16 2°42.22 10.3 18 16.3 101860 80
2003-06-18 08:32 51°14.14 2°42.05 10 14 16.2 101860 79
2003-06-18 08:33 51°14.11 2°41.88 11.3 15 16.2 101850 79
2003-06-18 08:34 51°14.06 2°41.67 10.7 24 16.3 101860 80
2003-06-18 08:35 51°14.03 2°41.45 10.9 7 16.2 101850 79
2003-06-18 08:36 51°14.02 2°41.23 10.3 350 16.2 101850 79
2003-06-18 08:37 51°14.07 2°41.13 7.9 288 16.3 101850 80
2003-06-18 08:38 51°14.11 2°41.15 5.5 226 16.3 101880 80
2003-06-18 08:39 51°14.11 2°41.18 4.7 201 16.2 101880 80
2003-06-18 08:40 51°14.11 2°41.2 5.8 216 16.1 101880 80
2003-06-18 08:41 51°14.11 2°41.21 6.9 230 16.1 101880 80
2003-06-18 08:42 51°14.12 2°41.21 7.5 237 16.1 101890 80
2003-06-18 08:43 51°14.12 2°41.21 7 246 16.2 101880 80
2003-06-18 08:44 51°14.12 2°41.2 5.3 252 16.2 101880 81
2003-06-18 08:45 51°14.13 2°41.19 6.6 260 16.2 101890 81
2003-06-18 08:46 51°14.13 2°41.18 5.2 254 16.1 101890 80
2003-06-18 08:47 51°14.14 2°41.17 4.1 254 16.1 101890 80
2003-06-18 08:48 51°14.14 2°41.16 5.8 251 16 101900 80
2003-06-18 08:49 51°14.15 2°41.15 5.2 251 16 101890 80
2003-06-18 08:50 51°14.16 2°41.14 5.6 250 16.1 101890 81
2003-06-18 08:51 51°14.16 2°41.13 7.5 258 16 101900 80
2003-06-18 08:52 51°14.17 2°41.12 5.9 253 16 101900 80
2003-06-18 08:53 51°14.17 2°41.11 6.3 258 16 101900 80
2003-06-18 08:54 51°14.17 2°41.09 9.3 265 16 101890 80
2003-06-18 08:55 51°14.17 2°41.07 9.3 270 16 101900 80
2003-06-18 08:56 51°14.18 2°41.06 9.6 270 16 101900 80
2003-06-18 08:57 51°14.18 2°41.04 9.1 266 16 101890 79
2003-06-18 08:58 51°14.19 2°41.02 7.9 277 16.1 101890 81
2003-06-18 08:59 51°14.21 2°41 7.9 270 16.1 101890 80
2003-06-18 09:00 51°14.22 2°40.99 9.1 271 16.1 101890 80
2003-06-18 09:01 51°14.24 2°40.98 10.2 272 16.1 101890 80
2003-06-18 09:02 51°14.26 2°40.96 10.1 268 16 101900 79
2003-06-18 09:03 51°14.27 2°40.95 6.9 257 16 101900 79
2003-06-18 09:04 51°14.3 2°40.95 10.3 302 16 101910 79
2003-06-18 09:05 51°14.41 2°40.86 11.9 321 16.1 101880 79
2003-06-18 09:06 51°14.61 2°40.75 11.2 322 16.1 101880 79
2003-06-18 09:07 51°14.82 2°40.66 12.2 325 16.1 101880 79
2003-06-18 09:08 51°15.04 2°40.57 12 326 16.1 101870 78
2003-06-18 09:09 51°15.26 2°40.5 11.3 42 16.1 101870 79
2003-06-18 09:10 51°15.47 2°40.55 9.2 310 16.1 101890 79
2003-06-18 09:11 51°15.69 2°40.63 9.9 308 16 101890 79
2003-06-18 09:12 51°15.9 2°40.71 9.5 310 16 101890 79
2003-06-18 09:13 51°16.11 2°40.79 10.6 228 16 101890 79
2003-06-18 09:14 51°16.32 2°40.87 10.7 308 16 101890 78
2003-06-18 09:15 51°16.51 2°40.89 8.5 302 16 101890 79
2003-06-18 09:16 51°16.67 2°40.87 10.2 310 16.1 101890 79
2003-06-18 09:17 51°16.82 2°40.8 10.9 304 16 101890 78
2003-06-18 09:18 51°16.95 2°40.85 4.8 286 16 101900 78
2003-06-18 09:19 51°17.05 2°40.95 4.4 237 16 101910 79
2003-06-18 09:20 51°17.1 2°41.03 4.4 255 15.9 101910 78
2003-06-18 09:21 51°17.16 2°41.11 6.2 244 15.9 101910 78
2003-06-18 09:22 51°17.2 2°41.16 7.1 243 15.9 101910 79
2003-06-18 09:23 51°17.23 2°41.2 6.4 236 15.9 101910 78
2003-06-18 09:24 51°17.25 2°41.22 5.9 250 15.9 101910 79
2003-06-18 09:25 51°17.26 2°41.23 7.8 241 15.9 101930 79
2003-06-18 09:26 51°17.28 2°41.23 7.4 241 15.8 101930 79
2003-06-18 09:27 51°17.29 2°41.23 6.4 249 15.9 101930 79
2003-06-18 09:28 51°17.29 2°41.23 5.5 251 15.9 101930 79
2003-06-18 09:29 51°17.31 2°41.24 5.5 229 15.9 101930 80
2003-06-18 09:30 51°17.31 2°41.26 3.3 231 16 101930 80
2003-06-18 09:31 51°17.32 2°41.27 6.7 239 16 101930 81
2003-06-18 09:32 51°17.33 2°41.27 4.8 257 16 101930 80
2003-06-18 09:33 51°17.33 2°41.27 5.7 251 15.9 101930 80
2003-06-18 09:34 51°17.34 2°41.26 5.4 257 16 101920 81
2003-06-18 09:35 51°17.34 2°41.24 8.2 262 16 101930 81
2003-06-18 09:36 51°17.35 2°41.23 6.3 258 15.9 101940 80
2003-06-18 09:37 51°17.35 2°41.22 8 264 15.9 101940 81
2003-06-18 09:38 51°17.35 2°41.2 10.5 270 16 101940 81
2003-06-18 09:39 51°17.34 2°41.18 7.5 280 16 101930 81
2003-06-18 09:40 51°17.33 2°41.16 8.1 284 16 101940 81
2003-06-18 09:41 51°17.32 2°41.14 7.3 282 16.1 101930 81
2003-06-18 09:42 51°17.31 2°41.12 9.3 280 16.1 101940 81
2003-06-18 09:43 51°17.31 2°41.11 9.1 276 16.1 101920 80
2003-06-18 09:44 51°17.31 2°41.09 8.7 263 16.1 101930 81
2003-06-18 09:45 51°17.32 2°41.08 5.9 256 16 101940 80
2003-06-18 09:46 51°17.33 2°41.08 7.2 244 16 101940 81
2003-06-18 09:47 51°17.33 2°41.09 7.5 216 16 101940 81
2003-06-18 09:48 51°17.32 2°41.11 6.5 213 16.1 101950 81
2003-06-18 09:49 51°17.31 2°41.14 3.9 195 15.9 101950 80
2003-06-18 09:50 51°17.28 2°41.17 7.6 157 16.1 101960 81
2003-06-18 09:51 51°17.25 2°41.2 8.2 154 16 101960 80
2003-06-18 09:52 51°17.21 2°41.23 7.3 160 16 101950 81
2003-06-18 09:53 51°17.19 2°41.3 5.9 221 16 101960 81
2003-06-18 09:54 51°17.21 2°41.35 4.7 252 16 101950 81
2003-06-18 09:55 51°17.26 2°41.43 7.3 261 16.1 101950 82
2003-06-18 09:56 51°17.34 2°41.56 7.1 276 16 101960 81
2003-06-18 09:57 51°17.45 2°41.67 6.9 276 16 101950 81
2003-06-18 09:58 51°17.57 2°41.79 8.1 272 16 101950 81
2003-06-18 09:59 51°17.68 2°41.9 6 273 16.1 101960 81
2003-06-18 10:00 51°17.79 2°42.02 6.6 280 16.1 101960 81
2003-06-18 10:01 51°17.89 2°42.15 7.7 263 16.1 101960 81
2003-06-18 10:02 51°18 2°42.28 8.2 265 16.1 101960 81
2003-06-18 10:03 51°18.1 2°42.41 8.2 271 16.1 101960 80
2003-06-18 10:04 51°18.2 2°42.53 7.5 265 16.1 101960 81
2003-06-18 10:05 51°18.28 2°42.64 7 266 16.1 101960 80
2003-06-18 10:06 51°18.36 2°42.74 7.7 268 16.1 101960 81
2003-06-18 10:07 51°18.44 2°42.83 5.4 257 16.1 101960 81
2003-06-18 10:08 51°18.52 2°42.92 4.2 253 16.2 101970 81
2003-06-18 10:09 51°18.57 2°43.01 5.3 247 16.2 101970 81
2003-06-18 10:10 51°18.62 2°43.08 6 236 16.2 101980 81
2003-06-18 10:11 51°18.65 2°43.15 7.2 229 16.2 101970 81
2003-06-18 10:12 51°18.68 2°43.23 5.8 236 16.1 101970 81
2003-06-18 10:13 51°18.71 2°43.31 5.3 235 16.1 101970 80
2003-06-18 10:14 51°18.74 2°43.39 4.6 229 16.1 101970 81
2003-06-18 10:15 51°18.77 2°43.46 5.1 240 16.2 101970 81
2003-06-18 10:16 51°18.8 2°43.54 5.6 235 16.2 101980 80
2003-06-18 10:17 51°18.83 2°43.62 4.8 241 16.1 101980 80
2003-06-18 10:18 51°18.86 2°43.7 5.4 236 16.2 101980 80
2003-06-18 10:19 51°18.89 2°43.76 6.4 238 16.2 101990 81
2003-06-18 10:20 51°18.91 2°43.78 6.1 247 16.3 101990 81
2003-06-18 10:21 51°18.92 2°43.79 5.9 252 16.1 102000 79
2003-06-18 10:22 51°18.93 2°43.79 6.2 250 16.1 102000 80
2003-06-18 10:23 51°18.94 2°43.79 5.9 251 16.1 102000 79
2003-06-18 10:24 51°18.95 2°43.79 6.8 240 16.2 102000 80
2003-06-18 10:25 51°18.95 2°43.79 8.3 235 16.2 102010 79
2003-06-18 10:26 51°18.96 2°43.8 7.9 240 16.2 102010 79
2003-06-18 10:27 51°18.96 2°43.8 7.6 241 16.2 102010 79
2003-06-18 10:28 51°18.96 2°43.79 6.7 250 16.2 102030 78
2003-06-18 10:29 51°18.96 2°43.78 5.7 259 16.2 102020 79
2003-06-18 10:30 51°18.96 2°43.77 6.4 248 16.2 102020 79
2003-06-18 10:31 51°18.96 2°43.75 5.4 256 16.3 102020 79
2003-06-18 10:32 51°18.96 2°43.74 6.1 251 16.3 102020 79
2003-06-18 10:33 51°18.97 2°43.78 4 174 16.3 102020 79
2003-06-18 10:34 51°18.94 2°43.82 6.6 128 16.4 102000 79
2003-06-18 10:35 51°18.9 2°43.82 7.2 122 16.4 102000 79
2003-06-18 10:36 51°18.87 2°43.82 7.9 120 16.4 102000 79
2003-06-18 10:37 51°18.84 2°43.81 7.4 125 16.4 102000 78
2003-06-18 10:38 51°18.82 2°43.8 6.3 128 16.4 102000 78
2003-06-18 10:39 51°18.79 2°43.8 7.5 137 16.4 102000 78
2003-06-18 10:40 51°18.76 2°43.82 6.3 139 16.3 102010 78
2003-06-18 10:41 51°18.72 2°43.82 7.9 109 16.4 102010 79
2003-06-18 10:42 51°18.68 2°43.81 8 88 16.4 102010 78
2003-06-18 10:43 51°18.65 2°43.78 7.4 61 16.4 102010 77
2003-06-18 10:44 51°18.61 2°43.75 7.7 51 16.4 102000 77
2003-06-18 10:45 51°18.59 2°43.71 8.3 44 16.4 102000 77
2003-06-18 10:46 51°18.56 2°43.66 7.8 31 16.4 101980 77
2003-06-18 10:47 51°18.54 2°43.62 6.6 16 16.4 101990 77
2003-06-18 10:48 51°18.53 2°43.57 8.1 345 16.6 102000 77
2003-06-18 10:49 51°18.52 2°43.52 6.9 314 16.5 101990 75
2003-06-18 10:50 51°18.53 2°43.49 7.6 282 16.7 101990 75
2003-06-18 10:51 51°18.55 2°43.48 5.5 259 16.6 102000 74
2003-06-18 10:52 51°18.6 2°43.5 7.5 277 16.7 102000 75
2003-06-18 10:53 51°18.72 2°43.59 5.4 289 16.7 102000 75
2003-06-18 10:54 51°18.85 2°43.79 4.8 295 16.7 102010 75
2003-06-18 10:55 51°19 2°44 6 293 16.7 102010 75
2003-06-18 10:56 51°19.14 2°44.22 5.5 296 16.7 102000 74
2003-06-18 10:57 51°19.28 2°44.44 4.4 289 16.8 102000 75
2003-06-18 10:58 51°19.39 2°44.69 2.7 292 16.8 102000 74
2003-06-18 10:59 51°19.47 2°44.98 2.4 308 16.8 102010 73
2003-06-18 11:00 51°19.54 2°45.26 3.1 279 16.8 102000 73
2003-06-18 11:01 51°19.61 2°45.56 2.5 275 16.9 102000 73
2003-06-18 11:02 51°19.66 2°45.84 2.2 265 16.9 102010 72
2003-06-18 11:03 51°19.69 2°46.14 1.2 253 16.9 102010 72
2003-06-18 11:04 51°19.69 2°46.45 0.3 171 16.8 102010 70
2003-06-18 11:05 51°19.71 2°46.74 1.1 253 17 102010 70
2003-06-18 11:06 51°19.74 2°47.02 3 257 17 102010 70
2003-06-18 11:07 51°19.81 2°47.26 1.1 219 16.9 102010 69
2003-06-18 11:08 51°19.8 2°47.43 3.7 209 17 102010 70
2003-06-18 11:09 51°19.82 2°47.51 5.5 238 17 102000 69
2003-06-18 11:10 51°19.85 2°47.54 6.2 227 17 102010 72
2003-06-18 11:11 51°19.86 2°47.57 5.5 208 16.9 102020 71
2003-06-18 11:12 51°19.85 2°47.6 4.6 203 16.9 102010 73
2003-06-18 11:13 51°19.83 2°47.62 5.8 152 17.1 102010 71
2003-06-18 11:14 51°19.8 2°47.65 3.9 185 17 102010 71
2003-06-18 11:15 51°19.82 2°47.71 5.9 244 17 102020 72
2003-06-18 11:16 51°19.85 2°47.74 5.2 259 17 102020 74
2003-06-18 11:17 51°19.87 2°47.73 5.1 255 16.9 102020 73
2003-06-18 11:18 51°19.89 2°47.72 5.7 258 16.8 102020 72
2003-06-18 11:19 51°19.9 2°47.69 5.7 257 16.8 102020 73
2003-06-18 11:20 51°19.9 2°47.67 4.9 257 16.8 102030 74
2003-06-18 11:21 51°19.91 2°47.64 5.6 257 16.8 102020 74
2003-06-18 11:22 51°19.91 2°47.61 5.4 255 16.9 102020 75
2003-06-18 11:23 51°19.92 2°47.59 6.6 241 16.9 102030 75
2003-06-18 11:24 51°19.93 2°47.62 6.1 169 16.8 102030 73
2003-06-18 11:25 51°19.91 2°47.67 6 155 16.8 102030 74
2003-06-18 11:26 51°19.9 2°47.69 7.8 143 16.8 102030 75
2003-06-18 11:27 51°19.87 2°47.7 7.1 138 16.9 102020 77
2003-06-18 11:28 51°19.85 2°47.7 6.1 145 16.9 102030 78
2003-06-18 11:29 51°19.83 2°47.7 8.1 160 16.9 102020 78
2003-06-18 11:30 51°19.82 2°47.7 4 199 16.8 102030 77
2003-06-18 11:31 51°19.82 2°47.71 5.2 199 16.8 102030 77
2003-06-18 11:32 51°19.82 2°47.71 8.8 223 16.8 102030 78
2003-06-18 11:33 51°19.83 2°47.71 8.8 230 16.7 102030 78
2003-06-18 11:34 51°19.84 2°47.71 7.2 246 16.6 102040 78
2003-06-18 11:35 51°19.86 2°47.69 6.9 250 16.6 102030 78
2003-06-18 11:36 51°19.87 2°47.67 6.1 248 16.5 102020 79
2003-06-18 11:37 51°19.89 2°47.66 7 240 16.5 102020 79
2003-06-18 11:38 51°19.91 2°47.64 6.8 241 16.5 102020 79
2003-06-18 11:39 51°19.92 2°47.63 7.3 230 16.5 102020 79
2003-06-18 11:40 51°19.93 2°47.63 7.6 225 16.5 102020 78
2003-06-18 11:41 51°19.95 2°47.63 7 221 16.5 102020 77
2003-06-18 11:42 51°19.96 2°47.64 5.7 202 16.5 102030 78
2003-06-18 11:43 51°19.96 2°47.66 7 161 16.6 102030 78
2003-06-18 11:44 51°19.94 2°47.68 7 126 16.6 102030 78
2003-06-18 11:45 51°19.88 2°47.69 8.8 60 16.6 102030 77
2003-06-18 11:46 51°19.76 2°47.56 13.3 23 16.7 102000 78
2003-06-18 11:47 51°19.59 2°47.31 12.9 19 16.8 101980 77
2003-06-18 11:48 51°19.4 2°47.04 15.2 20 16.9 101980 77
2003-06-18 11:49 51°19.21 2°46.77 14.1 19 16.9 101970 77
2003-06-18 11:50 51°19.02 2°46.5 13.9 20 17 101960 77
2003-06-18 11:51 51°18.83 2°46.23 14.8 25 17 101970 78
2003-06-18 11:52 51°18.64 2°45.96 14 20 17 101960 77
2003-06-18 11:53 51°18.45 2°45.69 14.4 23 17 101960 78
2003-06-18 11:54 51°18.27 2°45.41 12.5 16 17.1 101960 78
2003-06-18 11:55 51°18.14 2°45.13 13.5 26 17 101970 77
2003-06-18 11:56 51°18 2°44.88 12.7 23 17.1 101970 78
2003-06-18 11:57 51°17.87 2°44.62 13.1 7 17 101970 77
2003-06-18 11:58 51°17.77 2°44.39 9.7 32 17 102000 77
2003-06-18 11:59 51°17.67 2°44.34 8 97 17 102000 77
2003-06-18 12:00 51°17.61 2°44.39 4.8 148 17 102020 78
2003-06-18 12:01 51°17.59 2°44.44 3.6 184 17.1 102020 79
2003-06-18 12:02 51°17.59 2°44.47 5.1 200 17.1 102020 79
2003-06-18 12:03 51°17.59 2°44.48 6.1 207 17.2 102020 77
2003-06-18 12:04 51°17.58 2°44.49 7.4 223 17.1 102030 77
2003-06-18 12:05 51°17.58 2°44.49 7 241 17.1 102030 77
2003-06-18 12:06 51°17.58 2°44.49 6.9 247 17.1 102030 77
2003-06-18 12:07 51°17.58 2°44.48 5.3 255 17 102020 77
2003-06-18 12:08 51°17.58 2°44.47 5.7 255 16.9 102020 76
2003-06-18 12:09 51°17.57 2°44.45 6.9 258 16.9 102020 75
2003-06-18 12:10 51°17.57 2°44.44 10 264 16.9 102020 75
2003-06-18 12:11 51°17.56 2°44.42 10.8 268 17 102020 74
2003-06-18 12:12 51°17.56 2°44.41 10 264 17 102020 75
2003-06-18 12:13 51°17.55 2°44.4 8.9 260 17.1 102020 75
2003-06-18 12:14 51°17.54 2°44.39 10.6 266 17.1 102030 74
2003-06-18 12:15 51°17.54 2°44.37 12.1 268 17.2 102020 75
2003-06-18 12:16 51°17.53 2°44.36 10 277 17.1 102020 74
2003-06-18 12:17 51°17.52 2°44.35 9.2 285 17.1 102010 75
2003-06-18 12:18 51°17.52 2°44.33 10.1 280 17.1 102010 74
2003-06-18 12:19 51°17.52 2°44.32 9.8 278 17 101980 73
2003-06-18 12:20 51°17.52 2°44.3 8.2 278 17.1 101990 73
2003-06-18 12:21 51°17.52 2°44.28 8.5 284 17.1 101980 74
2003-06-18 12:22 51°17.52 2°44.25 9.1 274 17.1 101980 73
2003-06-18 12:23 51°17.53 2°44.23 10.2 282 17.1 101980 75
2003-06-18 12:24 51°17.53 2°44.21 9.6 279 17.2 101980 74
2003-06-18 12:25 51°17.54 2°44.18 9.8 266 17.2 101980 73
2003-06-18 12:26 51°17.54 2°44.16 12.1 273 17.3 101980 74
2003-06-18 12:27 51°17.58 2°44.14 5.7 232 17.2 101980 72
2003-06-18 12:28 51°17.6 2°44.23 9.2 135 17.2 102000 71
2003-06-18 12:29 51°17.53 2°44.35 8.7 92 17.2 102000 69
2003-06-18 12:30 51°17.39 2°44.5 9.1 78 17.3 101990 71
2003-06-18 12:31 51°17.22 2°44.69 10.6 81 17.3 101960 70
2003-06-18 12:32 51°17.03 2°44.89 10.5 67 17.2 101960 70
2003-06-18 12:33 51°16.84 2°45.1 9.4 72 17.2 101960 71
2003-06-18 12:34 51°16.65 2°45.3 9.5 79 17.2 101960 71
2003-06-18 12:35 51°16.47 2°45.52 8 76 17.2 101960 70
2003-06-18 12:36 51°16.28 2°45.74 11.4 80 17.2 101960 69
2003-06-18 12:37 51°16.09 2°45.97 11.7 89 17.3 101960 70
2003-06-18 12:38 51°16.01 2°46.28 3.6 134 17.3 101970 70
2003-06-18 12:39 51°16 2°46.64 4.8 92 17.4 101980 68
2003-06-18 12:40 51°15.97 2°46.99 5.2 109 17.4 101980 68
2003-06-18 12:41 51°15.94 2°47.35 5.1 110 17.5 101980 67
2003-06-18 12:42 51°15.91 2°47.71 5.5 111 17.6 101990 66
2003-06-18 12:43 51°15.87 2°48.07 4.9 114 17.6 101990 67
2003-06-18 12:44 51°15.84 2°48.43 4.5 113 17.7 101990 68
2003-06-18 12:45 51°15.81 2°48.78 6.5 125 17.7 101990 67
2003-06-18 12:46 51°15.78 2°49.14 4.1 102 17.7 101990 67
2003-06-18 12:47 51°15.75 2°49.49 4.6 115 17.8 101990 68
2003-06-18 12:48 51°15.72 2°49.86 4.6 132 17.8 101990 66
2003-06-18 12:49 51°15.72 2°50.22 3.2 141 17.9 101990 67
2003-06-18 12:50 51°15.7 2°50.58 5.9 98 17.9 101990 65
2003-06-18 12:51 51°15.64 2°50.93 4.6 107 18 101990 67
2003-06-18 12:52 51°15.58 2°51.27 6.5 93 18 101990 66
2003-06-18 12:53 51°15.51 2°51.61 6.7 114 18.1 101980 67
2003-06-18 12:54 51°15.43 2°51.94 7 105 18.1 101980 65
2003-06-18 12:55 51°15.33 2°52.25 7.2 101 18.1 101990 65
2003-06-18 12:56 51°15.22 2°52.57 7.1 104 18.2 101990 67
2003-06-18 12:57 51°15.12 2°52.88 7 94 18.2 101980 65
2003-06-18 12:58 51°15.01 2°53.2 7.9 97 18.3 101990 66
2003-06-18 12:59 51°14.89 2°53.51 7.7 103 18.3 101980 64
2003-06-18 13:00 51°14.77 2°53.82 7.2 95 18.3 101980 65
2003-06-18 13:01 51°14.67 2°54.15 6.1 105 18.3 101990 65
2003-06-18 13:02 51°14.58 2°54.48 8.3 105 18.4 101990 66
2003-06-18 13:03 51°14.48 2°54.77 7.7 103 18.4 101980 66
2003-06-18 13:04 51°14.39 2°55.01 7.8 97 18.5 101980 65
2003-06-18 13:05 51°14.29 2°55.21 7.7 100 18.5 101980 66